User: anonymous
Location: Pine Mountain Observatory
(43.7910°N, 120.9377°W)
Time: 21:13:51
(UTC-07:00)
Language:

Cosmos 1076 Rocket - Orbit

View from above orbital plane
View from above orbital plane
View from above satellite
View from above satellite

Ground track
Ground track

The orbit data is extracted from the following two-line orbital elements,

1 11267U 79011B   14242.15558781  .00000278  00000-0  27370-4 0  5006
2 11267 082.5245 114.0574 0017525 032.7776 081.2098 14.88182223923426
Epoch (UTC): 30 August 2014 03:44:02
Eccentricity: 0.0017525
inclination: 82.5245°
perigee height: 591 km
apogee height: 616 km
right ascension of ascending node: 114.0574°
argument of perigee: 32.7776°
revolutions per day: 14.88182223
mean anomaly at epoch: 81.2098°
orbit number at epoch: 92342

The dashed part of the orbit path shows where the satellite is in the earth's shadow,  

DLR